SP8EBC-11 Weather Reports


time (UTC)temp
F
wind
direction
speed
knots
gust
knots
rain 1hr
in
rain 24hr
in
rain mn
in
humidity
%
barometer
mb
20260507034557 52 26 4.3 5.2 0.00 0.00 0.00 82 989.9
20260507034356 52 19 4.3 5.2 0.00 0.00 0.00 82 989.9
20260507034156 52 14 4.3 5.2 0.00 0.00 0.00 82 989.9
20260507033956 52 14 4.3 5.2 0.00 0.00 0.00 82 990.0
20260507033756 52 15 3.5 4.3 0.00 0.00 0.00 82 990.0
20260507033556 51 15 3.5 4.3 0.00 0.00 0.00 82 990.0
20260507033356 51 23 4.3 5.2 0.00 0.00 0.00 82 990.0
20260507033156 51 12 3.5 5.2 0.00 0.00 0.00 82 990.2
20260507032956 51 15 1.7 3.5 0.00 0.00 0.00 81 990.3
20260507032755 51 21 1.7 2.6 0.00 0.00 0.00 81 990.3
20260507032555 51 26 2.6 3.5 0.00 0.00 0.00 81 990.2
20260507032355 51 25 2.6 3.5 0.00 0.00 0.00 81 990.2
20260507032155 50 17 3.5 3.5 0.00 0.00 0.00 81 990.2
20260507031955 50 3 3.5 4.3 0.00 0.00 0.00 81 990.2
20260507031755 50 330 3.5 3.5 0.00 0.00 0.00 81 990.3
20260507031555 50 318 3.5 3.5 0.00 0.00 0.00 81 990.3
20260507031355 50 322 2.6 3.5 0.00 0.00 0.00 81 990.3
20260507031155 50 333 3.5 3.5 0.00 0.00 0.00 81 990.3
20260507030955 50 0 3.5 3.5 0.00 0.00 0.00 81 990.2
20260507030755 50 18 3.5 3.5 0.00 0.00 0.00 81 990.2
20260507030555 50 17 3.5 3.5 0.00 0.00 0.00 81 990.3
20260507030355 50 353 2.6 3.5 0.00 0.00 0.00 81 990.3
20260507030155 51 345 2.6 3.5 0.00 0.00 0.00 81 990.4
20260507025955 51 312 1.7 3.5 0.00 0.00 0.00 81 990.5
20260507025755 51 274 2.6 4.3 0.00 0.00 0.00 81 990.7
20260507025555 51 264 3.5 5.2 0.00 0.00 0.00 80 990.6
20260507025146 51 275 4.3 7.0 0.00 0.00 0.00 80 990.6
20260507024946 51 237 3.5 7.0 0.00 0.00 0.00 80 990.9
20260507024746 51 223 6.1 8.7 0.00 0.00 0.00 80 990.9
20260507024546 51 219 7.0 8.7 0.00 0.00 0.00 80 990.7
20260507024346 51 206 5.2 7.8 0.00 0.00 0.00 79 990.5
20260507024146 51 225 2.6 4.3 0.00 0.00 0.00 79 990.5
20260507023946 51 249 0.9 1.7 0.00 0.00 0.00 79 990.4
20260507023745 51 249 0.9 0.9 0.00 0.00 0.00 79 990.3
20260507023545 51 249 0.9 0.9 0.00 0.00 0.00 79 990.3
20260507023345 51 249 0.9 0.9 0.00 0.00 0.00 79 990.2
20260507023145 51 249 0.9 0.9 0.00 0.00 0.00 79 990.1
20260507022945 51 249 0.9 0.9 0.00 0.00 0.00 79 990.0
20260507022745 51 249 0.9 0.9 0.00 0.00 0.00 79 990.0
20260507022545 51 249 0.9 1.7 0.00 0.00 0.00 79 990.1
20260507022345 51 249 2.6 3.5 0.00 0.00 0.00 79 990.1
20260507022145 51 251 3.5 3.5 0.00 0.00 0.00 79 990.2
20260507021945 51 253 4.3 6.1 0.00 0.00 0.00 79 990.3
20260507021744 51 237 5.2 7.0 0.00 0.00 0.00 79 990.3
20260507021545 51 229 3.5 5.2 0.00 0.00 0.00 79 990.3
20260507021345 51 242 2.6 2.6 0.00 0.00 0.00 79 990.3
20260507021145 51 256 1.7 2.6 0.00 0.00 0.00 79 990.3
20260507020944 51 248 2.6 2.6 0.00 0.00 0.00 79 990.4
20260507020745 51 268 1.7 2.6 0.00 0.00 0.00 79 990.4
20260507020544 52 277 1.7 1.7 0.00 0.00 0.00 79 990.4
20260507020343 52 272 2.6 4.3 0.00 0.00 0.00 79 990.4
20260507020145 52 249 4.3 6.1 0.00 0.00 0.00 79 990.5
20260507015943 52 233 7.0 9.6 0.00 0.00 0.00 79 990.5
20260507015745 53 234 7.0 9.6 0.00 0.00 0.00 79 990.4
20260507015543 53 244 6.1 7.0 0.00 0.00 0.00 78 990.4
20260507015344 53 246 6.1 7.0 0.00 0.00 0.00 78 990.3
20260507015144 53 241 6.1 7.8 0.00 0.00 0.00 78 990.3
20260507014943 53 238 6.1 7.8 0.00 0.00 0.00 78 990.3
20260507014743 52 235 4.3 6.1 0.00 0.00 0.00 78 990.2
20260507014543 52 244 3.5 4.3 0.00 0.00 0.00 78 990.2
20260507014343 52 254 1.7 3.5 0.00 0.00 0.00 78 990.1
20260507014144 52 242 1.7 2.6 0.00 0.00 0.00 77 990.0
20260507013943 52 225 0.9 0.9 0.00 0.00 0.00 77 990.0
20260507013743 52 225 0.9 0.9 0.00 0.00 0.00 78 990.0
20260507013542 52 225 0.9 0.9 0.00 0.00 0.00 78 990.0
20260507013342 52 225 0.9 0.9 0.00 0.00 0.00 78 990.1
20260507013142 52 225 0.9 2.6 0.00 0.00 0.00 78 990.1
20260507012942 52 196 1.7 2.6 0.00 0.00 0.00 78 990.0
20260507012743 53 101 0.9 1.7 0.00 0.00 0.00 77 990.0
20260507012542 52 99 1.7 2.6 0.00 0.00 0.00 77 990.0
20260507012343 52 93 1.7 2.6 0.00 0.00 0.00 77 989.9
20260507012142 52 59 1.7 2.6 0.00 0.00 0.00 77 989.9
20260507011942 52 51 0.9 0.9 0.00 0.00 0.00 77 989.9
20260507011742 52 50 0.9 0.9 0.00 0.00 0.00 77 989.9
20260507011542 52 50 0.9 0.9 0.00 0.00 0.00 77 990.0
20260507011342 52 50 0.9 0.9 0.00 0.00 0.00 77 990.0
20260507011142 52 51 0.9 1.7 0.00 0.00 0.00 77 990.0
20260507010942 52 345 0.9 1.7 0.00 0.00 0.00 77 989.9
20260507010742 52 306 0.9 0.9 0.00 0.00 0.00 77 989.9
20260507010543 52 306 0.9 1.7 0.00 0.00 0.00 77 989.9
20260507010341 52 306 1.7 2.6 0.00 0.00 0.00 77 989.8
20260507010141 52 306 2.6 2.6 0.00 0.00 0.00 77 989.8
20260507005941 52 306 2.6 2.6 0.00 0.00 0.00 77 989.7
20260507005742 52 309 2.6 2.6 0.00 0.00 0.00 77 989.7
20260507005541 52 5 1.7 2.6 0.00 0.00 0.00 77 989.7
20260507005342 52 92 0.9 1.7 0.00 0.00 0.00 77 989.7
20260507005141 52 103 0.0 0.9 0.00 0.00 0.00 77 989.8
20260507004941 52 102 0.0 0.0 0.00 0.00 0.00 77 989.8
20260507004741 52 102 0.0 0.9 0.00 0.00 0.00 77 989.8
20260507004541 52 102 0.0 0.9 0.00 0.00 0.00 77 989.8
20260507004341 52 102 0.0 0.0 0.00 0.00 0.00 77 989.8
20260507004141 52 102 0.0 0.0 0.00 0.00 0.00 77 989.8
20260507003941 52 103 0.0 0.0 0.00 0.00 0.00 77 989.8
20260507003741 52 103 0.9 1.7 0.00 0.00 0.00 77 989.8
20260507003541 52 103 1.7 1.7 0.00 0.00 0.00 77 989.8
20260507003341 52 102 1.7 2.6 0.00 0.00 0.00 77 989.8
20260507003141 52 102 1.7 2.6 0.00 0.00 0.00 77 989.8
20260507002941 52 102 1.7 1.7 0.00 0.00 0.00 78 989.8
20260507002741 52 102 1.7 2.6 0.00 0.00 0.00 78 989.8
20260507002541 51 102 2.6 3.5 0.00 0.00 0.00 78 989.8
20260507002345 51 104 2.6 3.5 0.00 0.00 0.00 77 989.7
20260507002141 51 102 2.6 3.5 0.00 0.00 0.00 77 989.7
20260507001940 51 102 2.6 3.5 0.00 0.00 0.00 77 989.6
20260507001733 51 102 2.6 2.6 0.00 0.00 0.00 77 989.7
20260507001533 51 102 2.6 2.6 0.00 0.00 0.00 78 989.7
20260507001333 51 102 3.5 3.5 0.00 0.00 0.00 78 989.7
20260507001133 50 102 2.6 3.5 0.00 0.00 0.00 78 989.8
20260507000933 50 102 2.6 3.5 0.00 0.00 0.00 78 989.8
20260507000733 50 87 2.6 2.6 0.00 0.00 0.00 77 989.8
20260507000533 50 65 1.7 2.6 0.00 0.00 0.00 78 989.8
20260507000335 49 65 1.7 2.6 0.00 0.00 0.00 77 989.8
20260507000132 49 63 1.7 1.7 0.00 0.00 0.00 77 989.8
20260506235932 49 62 0.9 1.7 0.00 0.00 0.00 77 989.9
20260506235732 49 63 0.9 0.9 0.00 0.00 0.00 77 989.9
20260506235534 49 62 0.9 0.9 0.00 0.00 0.00 77 989.9
20260506235332 49 65 0.9 0.9 0.00 0.00 0.00 77 990.0
20260506235132 49 65 0.9 0.9 0.00 0.00 0.00 77 990.0
20260506234932 49 65 0.0 0.9 0.00 0.00 0.00 77 990.1
20260506234732 49 63 0.0 0.9 0.00 0.00 0.00 77 990.1
20260506234532 49 63 0.9 0.9 0.00 0.00 0.00 77 990.1
20260506234332 49 62 0.0 0.9 0.00 0.00 0.00 77 990.1
20260506234132 49 62 0.0 0.9 0.00 0.00 0.00 77 990.1
20260506233932 49 62 0.9 1.7 0.00 0.00 0.00 77 990.1
20260506233732 49 65 1.7 1.7 0.00 0.00 0.00 77 990.0
20260506233532 49 65 1.7 1.7 0.00 0.00 0.00 77 990.1
20260506233332 49 65 0.9 1.7 0.00 0.00 0.00 77 990.1
20260506233131 49 63 0.9 1.7 0.00 0.00 0.00 77 990.1
20260506232931 49 62 0.9 0.9 0.00 0.00 0.00 76 990.1
20260506232731 49 62 0.9 1.7 0.00 0.00 0.00 76 990.1
20260506232531 49 62 0.9 1.7 0.00 0.00 0.00 76 990.1
20260506232331 49 62 1.7 1.7 0.00 0.00 0.00 76 990.1
20260506232131 50 65 1.7 1.7 0.00 0.00 0.00 76 990.1
20260506231931 50 65 0.9 1.7 0.00 0.00 0.00 76 990.1
20260506231731 50 65 0.0 0.9 0.00 0.00 0.00 76 990.1
20260506231531 50 63 0.0 0.0 0.00 0.00 0.00 76 990.1
20260506231331 50 62 0.0 0.0 0.00 0.00 0.00 76 990.1
20260506231131 51 62 0.0 0.0 0.00 0.00 0.00 76 990.1
20260506230931 51 62 0.0 0.0 0.00 0.00 0.00 76 990.2
20260506230731 51 63 0.0 0.0 0.00 0.00 0.00 76 990.2
20260506230531 51 65 0.0 0.0 0.00 0.00 0.00 76 990.2
20260506230334 51 65 0.0 0.9 0.00 0.00 0.00 76 990.1
20260506230131 51 65 0.9 0.9 0.00 0.00 0.00 76 990.2
20260506225930 50 63 0.9 0.9 0.00 0.00 0.00 75 990.2
20260506225730 50 62 0.9 1.7 0.00 0.00 0.00 75 990.2
20260506225530 50 63 1.7 1.7 0.00 0.00 0.00 75 990.2
20260506225330 50 62 1.7 2.6 0.00 0.00 0.00 75 990.2
20260506225130 51 65 1.7 2.6 0.00 0.00 0.00 75 990.2
20260506224930 51 65 1.7 1.7 0.00 0.00 0.00 75 990.3
20260506224730 51 70 1.7 1.7 0.00 0.00 0.00 75 990.2
20260506224530 51 87 1.7 1.7 0.00 0.00 0.00 75 990.2
20260506224330 51 99 1.7 1.7 0.00 0.00 0.00 75 990.2
20260506224130 51 114 1.7 1.7 0.00 0.00 0.00 75 990.2
20260506223930 52 114 0.9 1.7 0.00 0.00 0.00 75 990.2
20260506223730 52 114 0.0 0.0 0.00 0.00 0.00 75 990.1
20260506223530 52 116 0.0 0.9 0.00 0.00 0.00 75 990.1
20260506223330 52 116 0.9 0.9 0.00 0.00 0.00 75 990.1
20260506223130 52 116 1.7 1.7 0.00 0.00 0.00 75 990.1
20260506222929 52 115 0.9 1.7 0.00 0.00 0.00 75 990.1
20260506222729 51 115 0.0 0.9 0.00 0.00 0.00 75 990.1
20260506222529 52 115 0.0 0.9 0.00 0.00 0.00 74 990.1
20260506222329 52 114 0.9 0.9 0.00 0.00 0.00 74 990.1
20260506222129 52 114 0.9 0.9 0.00 0.00 0.00 74 990.1
20260506221929 52 116 0.0 0.9 0.00 0.00 0.00 74 990.1
20260506221729 52 116 0.9 0.9 0.00 0.00 0.00 74 990.1
20260506221529 52 116 0.9 1.7 0.00 0.00 0.00 74 990.1
20260506221329 52 115 0.9 1.7 0.00 0.00 0.00 74 990.0
20260506221129 52 114 0.9 0.9 0.00 0.00 0.00 74 990.0
20260506220929 52 114 0.9 1.7 0.00 0.00 0.00 74 990.0
20260506220729 53 114 1.7 1.7 0.00 0.00 0.00 74 990.0
20260506220529 53 115 1.7 1.7 0.00 0.00 0.00 74 990.0
20260506220329 53 116 1.7 1.7 0.00 0.00 0.00 74 990.0
20260506220129 53 116 0.9 0.9 0.00 0.00 0.00 74 990.0
20260506215929 53 116 0.9 0.9 0.00 0.00 0.00 74 990.0
20260506215728 53 115 0.9 0.9 0.00 0.00 0.00 73 990.0
20260506215528 53 114 0.9 1.7 0.00 0.00 0.00 74 990.0
20260506215328 53 115 0.9 1.7 0.00 0.00 0.00 74 990.0
20260506215128 53 114 1.7 1.7 0.00 0.00 0.00 74 990.0
20260506214932 53 116 1.7 1.7 0.00 0.00 0.00 74 990.0
20260506214728 53 116 1.7 1.7 0.00 0.00 0.00 74 989.9
20260506214537 53 115 1.7 1.7 0.00 0.00 0.00 74 990.0
20260506214122 52 115 1.7 1.7 0.00 0.00 0.00 74 990.0
20260506213922 52 114 1.7 1.7 0.00 0.00 0.00 74 990.0
20260506213722 52 114 1.7 1.7 0.00 0.00 0.00 73 990.1
20260506213522 52 114 0.9 1.7 0.00 0.00 0.00 73 990.1
20260506213322 52 116 0.0 0.9 0.00 0.00 0.00 73 990.1
20260506213122 52 116 0.9 1.7 0.00 0.00 0.00 73 990.1
20260506212922 52 116 1.7 1.7 0.00 0.00 0.00 73 990.1
20260506212721 53 115 1.7 1.7 0.00 0.00 0.00 73 990.1
20260506212521 53 114 1.7 1.7 0.00 0.00 0.00 73 990.1
20260506212321 53 114 0.9 1.7 0.00 0.00 0.00 73 990.2
20260506212121 53 114 0.9 0.9 0.00 0.00 0.00 73 990.2
20260506211922 53 114 0.9 0.9 0.00 0.00 0.00 73 990.2
20260506211721 53 116 0.0 0.9 0.00 0.00 0.00 73 990.2
20260506211521 53 116 0.9 0.9 0.00 0.00 0.00 73 990.2
20260506211321 53 116 0.9 1.7 0.00 0.00 0.00 72 990.2
20260506211121 53 115 1.7 1.7 0.00 0.00 0.00 72 990.2
20260506210921 53 114 1.7 1.7 0.00 0.00 0.00 72 990.2
20260506210721 53 114 1.7 2.6 0.00 0.00 0.00 72 990.2
20260506210521 53 113 2.6 2.6 0.00 0.00 0.00 72 990.1
20260506210321 53 97 1.7 2.6 0.00 0.00 0.00 72 990.1
20260506210121 53 49 0.9 1.7 0.00 0.00 0.00 72 990.1
20260506205921 53 36 1.7 1.7 0.00 0.00 0.00 72 990.1
20260506205722 53 36 1.7 1.7 0.00 0.00 0.00 72 990.1
20260506205521 53 33 1.7 1.7 0.00 0.00 0.00 72 990.1
20260506205321 53 33 0.9 1.7 0.00 0.00 0.00 72 990.1
20260506205121 53 33 0.9 1.7 0.00 0.00 0.00 72 990.1
20260506204921 53 33 1.7 1.7 0.00 0.00 0.00 72 990.1
20260506204721 53 36 1.7 1.7 0.00 0.00 0.00 72 990.0
20260506204521 53 22 1.7 1.7 0.00 0.00 0.00 72 990.0
20260506204321 53 255 1.7 1.7 0.00 0.00 0.00 72 990.0
20260506204121 53 249 0.9 1.7 0.00 0.00 0.00 72 990.0
20260506203921 53 249 0.9 0.9 0.00 0.00 0.00 71 990.0
20260506203720 53 248 0.9 0.9 0.00 0.00 0.00 71 990.0
20260506203521 54 248 0.9 0.9 0.00 0.00 0.00 71 990.0
20260506203321 54 248 0.9 0.9 0.00 0.00 0.00 71 990.0
20260506203124 54 249 0.9 0.9 0.00 0.00 0.00 71 989.9
20260506202921 54 249 0.9 0.9 0.00 0.00 0.00 71 989.8
20260506202721 54 249 0.9 1.7 0.00 0.00 0.00 71 989.8
20260506202522 54 249 1.7 1.7 0.00 0.00 0.00 71 989.8
20260506202320 54 248 1.7 1.7 0.00 0.00 0.00 71 989.8
20260506202120 54 248 0.9 0.9 0.00 0.00 0.00 71 989.8
20260506201920 54 248 0.9 0.9 0.00 0.00 0.00 71 989.8
20260506201720 54 248 0.9 0.9 0.00 0.00 0.00 71 989.8
20260506201520 54 249 0.0 0.9 0.00 0.00 0.00 71 989.8
20260506201320 54 249 0.0 0.9 0.00 0.00 0.00 71 989.8
20260506201120 54 249 0.9 0.9 0.00 0.00 0.00 70 989.8
20260506200919 54 249 0.9 0.9 0.00 0.00 0.00 70 989.8
20260506200719 54 248 0.9 0.9 0.00 0.00 0.00 70 989.8
20260506200519 54 248 0.9 1.7 0.00 0.00 0.00 70 989.8
20260506200319 54 248 0.9 1.7 0.00 0.00 0.00 70 989.9
20260506200120 54 249 0.0 0.9 0.00 0.00 0.00 70 989.9
20260506195920 54 249 0.0 0.9 0.00 0.00 0.00 69 989.9
20260506195720 54 249 0.9 0.9 0.00 0.00 0.00 69 989.9
20260506195520 55 249 0.9 0.9 0.00 0.00 0.00 69 989.9
20260506195319 55 249 0.9 0.9 0.00 0.00 0.00 69 989.9
20260506195119 56 249 0.0 0.9 0.00 0.00 0.00 69 989.8
20260506194919 56 249 0.0 0.0 0.00 0.00 0.00 69 989.8
20260506194719 56 248 0.0 0.9 0.00 0.00 0.00 69 989.8
20260506194521 56 249 0.0 0.9 0.00 0.00 0.00 69 989.8
20260506194319 56 249 0.9 0.9 0.00 0.00 0.00 69 989.8
20260506194119 56 249 0.9 0.9 0.00 0.00 0.00 69 989.8
20260506193919 56 249 0.0 0.9 0.00 0.00 0.00 68 989.8
20260506193718 56 249 0.9 0.9 0.00 0.00 0.00 68 989.8
20260506193518 57 248 0.0 0.9 0.00 0.00 0.00 68 989.9
20260506193318 57 248 0.0 0.9 0.00 0.00 0.00 68 989.9
20260506193118 57 248 0.9 0.9 0.00 0.00 0.00 68 989.9
20260506192918 57 249 0.9 1.7 0.00 0.00 0.00 68 989.9
20260506192718 57 249 0.9 1.7 0.00 0.00 0.00 68 989.9
20260506192519 57 249 0.0 0.9 0.00 0.00 0.00 68 989.9
20260506192318 58 249 0.9 0.9 0.00 0.00 0.00 67 989.9
20260506192118 58 248 0.9 0.9 0.00 0.00 0.00 67 989.8
20260506191918 58 248 0.9 1.7 0.00 0.00 0.00 67 989.8
20260506191718 58 248 0.9 1.7 0.00 0.00 0.00 67 989.8
20260506191518 58 248 1.7 1.7 0.00 0.00 0.00 67 989.8
20260506191318 58 249 1.7 1.7 0.00 0.00 0.00 67 989.8
20260506191118 58 249 1.7 1.7 0.00 0.00 0.00 66 989.8
20260506190918 58 249 1.7 1.7 0.00 0.00 0.00 66 989.8
20260506190709 59 248 0.9 1.7 0.00 0.00 0.00 66 989.8
20260506190510 59 248 0.0 1.7 0.00 0.00 0.00 66 989.8
20260506190310 59 248 0.0 0.0 0.00 0.00 0.00 65 989.8
20260506190110 60 249 0.0 0.0 0.00 0.00 0.00 65 989.8
20260506185910 60 249 0.0 0.0 0.00 0.00 0.00 65 989.8
20260506185710 61 249 0.0 0.0 0.00 0.00 0.00 65 989.8
20260506185509 61 249 0.0 0.0 0.00 0.00 0.00 65 989.8
20260506185309 62 248 0.0 0.0 0.00 0.00 0.00 64 989.7
20260506185109 62 248 0.0 0.0 0.00 0.00 0.00 64 989.7
20260506184911 62 248 0.0 0.0 0.00 0.00 0.00 64 989.7
20260506184709 62 249 0.0 0.0 0.00 0.00 0.00 64 989.7
20260506184509 63 249 0.0 0.0 0.00 0.00 0.00 64 989.7
20260506184311 63 249 0.0 0.0 0.00 0.00 0.00 64 989.6
20260506184109 63 249 0.0 0.0 0.00 0.00 0.00 64 989.6
20260506183908 63 249 0.0 0.0 0.00 0.00 0.00 64 989.6
20260506183708 63 248 0.0 0.0 0.00 0.00 0.00 64 989.6
20260506183508 63 248 0.0 0.9 0.00 0.00 0.00 64 989.6
20260506183308 63 248 0.9 0.9 0.00 0.00 0.00 64 989.6
20260506183109 63 249 0.9 0.9 0.00 0.00 0.00 64 989.6
20260506182909 63 249 0.9 0.9 0.00 0.00 0.00 64 989.6
20260506182709 63 249 0.9 0.9 0.00 0.00 0.00 64 989.6
20260506182509 63 249 0.9 1.7 0.00 0.00 0.00 64 989.5
20260506182308 63 249 1.7 1.7 0.00 0.00 0.00 64 989.5
20260506182108 63 248 1.7 1.7 0.00 0.00 0.00 64 989.5
20260506181908 63 248 1.7 1.7 0.00 0.00 0.00 64 989.5
20260506181708 63 248 1.7 1.7 0.00 0.00 0.00 64 989.5
20260506181508 63 249 1.7 1.7 0.00 0.00 0.00 64 989.5
20260506181308 63 249 1.7 2.6 0.00 0.00 0.00 63 989.5
20260506181108 63 249 1.7 2.6 0.00 0.00 0.00 63 989.5
20260506180907 64 249 0.9 1.7 0.00 0.00 0.00 63 989.5
20260506180707 64 249 1.7 1.7 0.00 0.00 0.00 63 989.4
20260506180507 64 248 1.7 1.7 0.00 0.00 0.00 63 989.4
20260506180307 65 248 2.6 2.6 0.00 0.00 0.00 63 989.3
20260506180107 65 248 2.6 2.6 0.00 0.00 0.00 63 989.3
20260506175908 65 249 2.6 2.6 0.00 0.00 0.00 63 989.3
20260506175708 65 249 2.6 3.5 0.00 0.00 0.00 63 989.3
20260506175508 65 250 3.5 3.5 0.00 0.00 0.00 63 989.3
20260506175307 65 254 3.5 3.5 0.00 0.00 0.00 63 989.1
20260506175107 65 255 3.5 4.3 0.00 0.00 0.00 63 989.1
20260506174907 65 256 3.5 4.3 0.00 0.00 0.00 63 989.0
20260506174707 65 256 3.5 5.2 0.00 0.00 0.00 63 989.0
20260506174507 65 258 3.5 4.3 0.00 0.00 0.00 63 989.0
20260506174307 65 261 3.5 4.3 0.00 0.00 0.00 62 989.1
20260506174107 65 264 4.3 5.2 0.00 0.00 0.00 62 989.2
20260506173907 65 261 4.3 6.1 0.00 0.00 0.00 62 989.2
20260506173707 65 261 4.3 6.1 0.00 0.00 0.00 62 989.2
20260506173507 65 262 4.3 5.2 0.00 0.00 0.00 62 989.2
20260506173306 65 264 4.3 6.1 0.00 0.00 0.00 62 989.2
20260506173106 66 263 5.2 7.8 0.00 0.00 0.00 62 989.2
20260506172906 66 265 5.2 6.1 0.00 0.00 0.00 62 989.2
20260506172707 66 267 5.2 7.0 0.00 0.00 0.00 62 989.2
20260506172506 66 265 5.2 6.1 0.00 0.00 0.00 62 989.2
20260506172307 67 262 5.2 7.0 0.00 0.00 0.00 62 989.2
20260506172106 67 262 6.1 7.8 0.00 0.00 0.00 62 989.2
20260506171906 67 266 7.0 8.7 0.00 0.00 0.00 62 989.1
20260506171706 67 266 7.0 7.8 0.00 0.00 0.00 62 989.1
20260506171506 67 259 7.0 10.4 0.00 0.00 0.00 61 989.1
20260506171306 67 258 8.7 11.3 0.00 0.00 0.00 61 989.1
20260506171108 67 259 7.0 10.4 0.00 0.00 0.00 61 989.1
20260506170906 67 261 7.0 8.7 0.00 0.00 0.00 61 989.1
20260506170705 68 259 7.8 9.6 0.00 0.00 0.00 61 989.0
20260506170505 68 253 7.0 9.6 0.00 0.00 0.00 61 988.9
20260506170305 68 252 6.1 7.8 0.00 0.00 0.00 61 988.9
20260506170105 68 257 6.1 7.8 0.00 0.00 0.00 61 988.9
20260506165905 68 252 6.1 8.7 0.00 0.00 0.00 61 988.9
20260506165705 68 252 6.1 8.7 0.00 0.00 0.00 61 988.9
20260506165505 69 253 6.1 8.7 0.00 0.00 0.00 61 988.8
20260506165306 69 247 7.0 9.6 0.00 0.00 0.00 61 988.8
20260506165105 69 242 9.6 13.9 0.00 0.00 0.00 61 988.8
20260506164905 69 244 10.4 13.9 0.00 0.00 0.00 61 988.7
20260506164705 69 242 8.7 12.2 0.00 0.00 0.00 61 988.5
20260506164505 69 242 7.8 9.6 0.00 0.00 0.00 61 988.4
20260506164305 69 242 7.0 8.7 0.00 0.00 0.00 61 988.4
20260506164105 69 240 7.8 10.4 0.00 0.00 0.00 61 988.5
20260506163905 69 233 8.7 12.2 0.00 0.00 0.00 61 988.5
20260506163705 69 231 9.6 11.3 0.00 0.00 0.00 61 988.6
20260506163505 69 232 9.6 11.3 0.00 0.00 0.00 61 988.6
20260506163056 69 229 7.0 10.4 0.00 0.00 0.00 61 988.4
20260506162856 69 233 6.1 7.0 0.00 0.00 0.00 61 988.3
20260506162656 69 231 7.0 9.6 0.00 0.00 0.00 61 988.3
20260506162456 69 236 6.1 9.6 0.00 0.00 0.00 61 988.4
20260506162256 69 231 6.1 7.8 0.00 0.00 0.00 61 988.5
20260506162056 69 232 7.0 8.7 0.00 0.00 0.00 61 988.5
20260506161856 70 235 7.0 10.4 0.00 0.00 0.00 61 988.5
20260506161655 70 241 7.0 9.6 0.00 0.00 0.00 61 988.5
20260506161455 70 232 6.1 9.6 0.00 0.00 0.00 61 988.5
20260506161255 70 232 6.1 8.7 0.00 0.00 0.00 61 988.5
20260506161055 70 232 7.0 9.6 0.00 0.00 0.00 61 988.5
20260506160855 70 233 7.8 10.4 0.00 0.00 0.00 61 988.4
20260506160655 70 236 7.0 8.7 0.00 0.00 0.00 61 988.2
20260506160455 70 236 7.0 8.7 0.00 0.00 0.00 61 988.2
20260506160255 70 238 7.0 9.6 0.00 0.00 0.00 61 988.4
20260506160055 70 238 7.0 8.7 0.00 0.00 0.00 61 988.5
20260506155855 70 242 7.8 10.4 0.00 0.00 0.00 61 988.3
20260506155655 70 242 7.0 9.6 0.00 0.00 0.00 61 988.3
20260506155455 70 238 7.0 8.7 0.00 0.00 0.00 61 988.4
20260506155255 70 242 8.7 10.4 0.00 0.00 0.00 61 988.5
20260506155055 70 240 7.8 9.6 0.00 0.00 0.00 61 988.6
20260506154855 71 232 10.4 13.9 0.00 0.00 0.00 60 988.5
20260506154655 71 236 11.3 13.9 0.00 0.00 0.00 60 988.5
20260506154454 71 239 11.3 15.6 0.00 0.00 0.00 61 988.4
20260506154254 71 230 8.7 15.6 0.00 0.00 0.00 60 988.3
20260506154054 71 229 7.8 11.3 0.00 0.00 0.00 60 988.4
20260506153854 71 230 8.7 10.4 0.00 0.00 0.00 60 988.5
20260506153654 71 231 8.7 10.4 0.00 0.00 0.00 60 988.4
20260506153454 71 226 7.8 10.4 0.00 0.00 0.00 61 988.3
20260506153254 71 232 9.6 13.0 0.00 0.00 0.00 61 988.3
20260506153054 71 228 8.7 12.2 0.00 0.00 0.00 61 988.2
20260506152854 71 232 9.6 12.2 0.00 0.00 0.00 61 988.0
20260506152654 71 236 7.0 10.4 0.00 0.00 0.00 61 988.0
20260506152454 71 237 7.0 10.4 0.00 0.00 0.00 61 988.1
20260506152254 70 232 7.8 10.4 0.00 0.00 0.00 61 988.2
20260506152054 70 233 8.7 11.3 0.00 0.00 0.00 61 988.4
20260506151854 70 233 8.7 11.3 0.00 0.00 0.00 61 988.4
20260506151654 70 235 8.7 11.3 0.00 0.00 0.00 61 988.5
20260506151453 70 230 8.7 10.4 0.00 0.00 0.00 61 988.5
20260506151253 70 233 10.4 13.0 0.00 0.00 0.00 60 988.5
20260506151053 71 233 10.4 13.0 0.00 0.00 0.00 61 988.5
20260506150853 71 236 8.7 12.2 0.00 0.00 0.00 61 988.5
20260506150653 71 233 9.6 11.3 0.00 0.00 0.00 61 988.5
20260506150453 71 228 10.4 12.2 0.00 0.00 0.00 61 988.5
20260506150300 71 231 11.3 13.9 0.00 0.00 0.00 60 988.4
20260506150053 71 229 11.3 15.6 0.00 0.00 0.00 61 988.4
20260506145853 71 224 10.4 13.0 0.00 0.00 0.00 61 988.4
20260506145653 71 225 9.6 12.2 0.00 0.00 0.00 61 988.4
20260506145453 71 226 9.6 13.0 0.00 0.00 0.00 61 988.3
20260506145253 71 230 8.7 12.2 0.00 0.00 0.00 61 988.3
20260506145053 71 218 9.6 13.0 0.00 0.00 0.00 61 988.2
20260506144853 71 207 8.7 13.0 0.00 0.00 0.00 62 988.2
20260506144653 71 200 7.8 11.3 0.00 0.00 0.00 62 988.1
20260506144453 71 198 7.8 11.3 0.00 0.00 0.00 62 988.1
20260506144252 71 215 8.7 11.3 0.00 0.00 0.00 62 988.1
20260506144052 71 218 7.8 10.4 0.00 0.00 0.00 62 988.1
20260506143852 71 213 6.1 8.7 0.00 0.00 0.00 62 988.1
20260506143652 71 220 6.1 8.7 0.00 0.00 0.00 62 988.2
20260506143452 71 231 7.0 8.7 0.00 0.00 0.00 62 988.2
20260506143252 71 236 7.0 8.7 0.00 0.00 0.00 62 988.2
20260506143052 71 243 6.1 7.8 0.00 0.00 0.00 62 988.2
20260506142852 71 242 6.1 7.8 0.00 0.00 0.00 63 988.2
20260506142652 71 237 6.1 7.8 0.00 0.00 0.00 62 988.3
20260506142452 71 236 7.0 8.7 0.00 0.00 0.00 62 988.3
20260506142252 71 242 6.1 8.7 0.00 0.00 0.00 63 988.2
20260506142052 71 231 5.2 7.0 0.00 0.00 0.00 62 988.3
20260506141852 71 225 7.0 9.6 0.00 0.00 0.00 62 988.3
20260506141652 71 218 10.4 13.9 0.00 0.00 0.00 62 988.3
20260506141452 72 219 7.8 13.9 0.00 0.00 0.00 62 988.3
20260506141252 72 225 7.0 10.4 0.00 0.00 0.00 62 988.3
20260506141051 72 221 7.0 10.4 0.00 0.00 0.00 62 988.1
20260506140851 72 226 6.1 9.6 0.00 0.00 0.00 62 988.0
20260506140651 72 224 3.5 4.3 0.00 0.00 0.00 62 987.9
20260506140451 72 223 3.5 5.2 0.00 0.00 0.00 62 987.9
20260506140251 72 225 3.5 5.2 0.00 0.00 0.00 63 987.9
20260506140051 72 195 4.3 5.2 0.00 0.00 0.00 62 987.9
20260506135850 72 204 5.2 7.0 0.00 0.00 0.00 62 988.0
20260506135642 72 215 6.1 7.0 0.00 0.00 0.00 62 988.0
20260506135442 72 218 5.2 7.0 0.00 0.00 0.00 62 988.0
20260506135242 72 214 5.2 7.8 0.00 0.00 0.00 63 988.3
20260506135042 72 211 7.0 8.7 0.00 0.00 0.00 63 988.6
20260506134842 72 221 8.7 13.9 0.00 0.00 0.00 63 988.6
20260506134642 72 246 7.0 7.8 0.00 0.00 0.00 63 988.6
20260506134442 72 246 6.1 7.8 0.00 0.00 0.00 63 988.4
20260506134242 72 231 7.0 8.7 0.00 0.00 0.00 63 988.2
20260506134041 72 176 6.1 8.7 0.00 0.00 0.00 63 987.9
20260506133841 72 156 4.3 7.0 0.00 0.00 0.00 63 987.9
20260506133641 72 201 4.3 8.7 0.00 0.00 0.00 63 987.8
20260506133441 72 267 4.3 8.7 0.00 0.00 0.00 63 987.7
20260506133241 72 274 3.5 5.2 0.00 0.00 0.00 64 987.6
20260506133041 72 267 2.6 5.2 0.00 0.00 0.00 64 987.6
20260506132841 72 211 0.9 2.6 0.00 0.00 0.00 64 987.7
20260506132641 72 226 1.7 2.6 0.00 0.00 0.00 64 987.8
20260506132441 72 240 2.6 4.3 0.00 0.00 0.00 64 987.9
20260506132241 72 244 3.5 5.2 0.00 0.00 0.00 64 987.7
20260506132041 72 253 3.5 5.2 0.00 0.00 0.00 64 987.5
20260506131841 72 260 2.6 4.3 0.00 0.00 0.00 64 987.4
20260506131641 72 261 1.7 4.3 0.00 0.00 0.00 64 987.3
20260506131441 72 272 0.9 0.9 0.00 0.00 0.00 65 987.3
20260506131241 71 273 1.7 4.3 0.00 0.00 0.00 65 987.4
20260506131041 71 275 3.5 5.2 0.00 0.00 0.00 65 987.4
20260506130841 71 277 3.5 6.1 0.00 0.00 0.00 65 987.4
20260506130641 71 249 3.5 5.2 0.00 0.00 0.00 65 987.5
20260506130441 71 317 4.3 6.1 0.00 0.00 0.00 65 987.6
20260506130240 71 312 5.2 7.0 0.00 0.00 0.00 65 987.7
20260506130041 71 290 5.2 6.1 0.00 0.00 0.00 65 987.8
20260506125840 71 283 5.2 7.0 0.00 0.00 0.00 65 987.7
20260506125641 71 291 5.2 7.0 0.00 0.00 0.00 65 987.7
20260506125441 71 279 4.3 7.0 0.00 0.00 0.00 65 987.7
20260506125240 70 260 2.6 4.3 0.00 0.00 0.00 65 987.8
20260506125041 71 249 2.6 3.5 0.00 0.00 0.00 65 987.9
20260506124840 71 218 1.7 3.5 0.00 0.00 0.00 65 988.0
20260506124641 71 209 2.6 4.3 0.00 0.00 0.00 65 987.9
20260506124440 71 252 1.7 2.6 0.00 0.00 0.00 65 987.9
20260506124241 71 62 0.9 0.9 0.00 0.00 0.00 65 988.0
20260506124040 71 65 0.9 0.9 0.00 0.00 0.00 65 987.9
20260506123840 71 63 0.9 0.9 0.00 0.00 0.00 65 987.8
20260506123640 70 62 0.9 1.7 0.00 0.00 0.00 66 987.8
20260506123440 70 62 1.7 3.5 0.00 0.00 0.00 66 987.8
20260506123240 70 38 1.7 3.5 0.00 0.00 0.00 66 987.8
20260506123040 70 30 1.7 2.6 0.00 0.00 0.00 66 988.0
20260506122840 70 6 1.7 4.3 0.00 0.00 0.00 66 988.2
20260506122640 70 349 2.6 4.3 0.00 0.00 0.00 66 988.2
20260506122440 70 20 1.7 2.6 0.00 0.00 0.00 66 988.2
20260506122240 70 34 1.7 1.7 0.00 0.00 0.00 66 988.2
20260506122040 70 72 1.7 4.3 0.00 0.00 0.00 66 988.1
20260506121840 70 88 3.5 5.2 0.00 0.00 0.00 66 987.9
20260506121640 70 63 2.6 4.3 0.00 0.00 0.00 66 987.6
20260506121440 70 8 1.7 3.5 0.00 0.00 0.00 66 987.6
20260506121240 70 9 1.7 2.6 0.00 0.00 0.00 66 987.6
20260506121040 70 33 1.7 3.5 0.00 0.00 0.00 66 987.7
20260506120839 70 66 1.7 3.5 0.00 0.00 0.00 66 987.8
20260506120639 70 54 2.6 3.5 0.00 0.00 0.00 67 987.8
20260506120439 70 85 3.5 5.2 0.00 0.00 0.00 67 987.7
20260506120239 70 82 3.5 5.2 0.00 0.00 0.00 67 987.7
20260506120039 69 51 2.6 4.3 0.00 0.00 0.00 67 987.8
20260506115839 69 55 3.5 4.3 0.00 0.00 0.00 67 987.9
20260506115639 69 48 4.3 7.8 0.00 0.00 0.00 67 987.9
20260506115439 69 33 4.3 6.1 0.00 0.00 0.00 67 987.9
20260506115239 69 33 3.5 6.1 0.00 0.00 0.00 68 988.0
20260506115039 69 44 3.5 7.0 0.00 0.00 0.00 68 988.1
20260506114839 69 58 5.2 8.7 0.00 0.00 0.00 68 988.1
20260506114639 68 65 5.2 7.0 0.00 0.00 0.00 68 988.0
20260506114439 68 65 4.3 6.1 0.00 0.00 0.00 68 987.9
20260506114239 68 79 4.3 7.0 0.00 0.00 0.00 68 988.0
20260506114039 68 81 5.2 7.0 0.00 0.00 0.00 68 988.0
20260506113839 68 75 5.2 7.8 0.00 0.00 0.00 68 987.9
20260506113638 68 72 4.3 7.8 0.00 0.00 0.00 69 987.9
20260506113438 68 68 4.3 7.0 0.00 0.00 0.00 69 988.0
20260506113238 68 72 5.2 7.8 0.00 0.00 0.00 69 988.0
20260506113038 67 84 5.2 7.8 0.00 0.00 0.00 69 988.0
20260506112838 67 90 4.3 6.1 0.00 0.00 0.00 69 988.1
20260506112638 66 76 5.2 7.8 0.00 0.00 0.00 69 988.3
20260506112438 66 76 5.2 7.0 0.00 0.00 0.00 69 988.4
20260506112035 66 76 5.2 6.1 0.00 0.00 0.00 69 988.5
20260506111835 66 71 4.3 5.2 0.00 0.00 0.00 69 988.5
20260506111635 66 87 4.3 6.1 0.00 0.00 0.00 69 988.6
20260506111435 66 95 5.2 7.8 0.00 0.00 0.00 69 988.5
20260506111235 66 87 4.3 7.8 0.00 0.00 0.00 69 988.5
20260506111034 66 83 4.3 6.1 0.00 0.00 0.00 69 988.3
20260506110834 66 83 4.3 6.1 0.00 0.00 0.00 70 988.4
20260506110634 66 97 4.3 6.1 0.00 0.00 0.00 70 988.5
20260506110434 65 101 5.2 7.0 0.00 0.00 0.00 69 988.6
20260506110234 65 82 3.5 7.0 0.00 0.00 0.00 70 988.6
20260506110034 65 90 2.6 4.3 0.00 0.00 0.00 70 988.7
20260506105834 65 87 3.5 5.2 0.00 0.00 0.00 69 988.8
20260506105634 65 77 5.2 7.0 0.00 0.00 0.00 70 988.7
20260506105434 65 64 4.3 7.0 0.00 0.00 0.00 70 988.6
20260506105234 65 71 4.3 6.1 0.00 0.00 0.00 70 988.7
20260506105034 65 79 4.3 6.1 0.00 0.00 0.00 70 988.7
20260506104834 65 97 3.5 6.1 0.00 0.00 0.00 70 988.7
20260506104634 65 83 3.5 5.2 0.00 0.00 0.00 70 988.7
20260506104434 65 66 4.3 6.1 0.00 0.00 0.00 70 988.7
20260506104234 65 93 5.2 7.8 0.00 0.00 0.00 70 988.7
20260506104033 64 103 4.3 7.8 0.00 0.00 0.00 70 988.8
20260506103833 64 98 4.3 7.0 0.00 0.00 0.00 70 989.0
20260506103633 64 107 5.2 7.0 0.00 0.00 0.00 70 989.0
20260506103433 64 102 5.2 7.0 0.00 0.00 0.00 70 988.8
20260506103233 64 90 3.5 6.1 0.00 0.00 0.00 70 988.8
20260506103033 64 85 2.6 4.3 0.00 0.00 0.00 70 988.8
20260506102833 64 79 3.5 5.2 0.00 0.00 0.00 70 988.8
20260506102633 64 90 4.3 5.2 0.00 0.00 0.00 70 988.7
20260506102433 64 87 3.5 5.2 0.00 0.00 0.00 71 988.8
20260506102233 64 91 3.5 5.2 0.00 0.00 0.00 71 988.9
20260506102034 63 104 5.2 9.6 0.00 0.00 0.00 71 988.9
20260506101833 63 95 5.2 9.6 0.00 0.00 0.00 71 988.9
20260506101633 63 79 4.3 6.1 0.00 0.00 0.00 71 988.9
20260506101433 63 88 4.3 6.1 0.00 0.00 0.00 71 988.9
20260506101233 63 99 3.5 5.2 0.00 0.00 0.00 71 988.9
20260506101033 63 95 4.3 6.1 0.00 0.00 0.00 71 989.0
20260506100832 62 89 5.2 6.1 0.00 0.00 0.00 71 989.1
20260506100632 62 88 4.3 5.2 0.00 0.00 0.00 71 989.2
20260506100432 62 84 3.5 4.3 0.00 0.00 0.00 71 989.3
20260506100232 62 87 4.3 5.2 0.00 0.00 0.00 71 989.3
20260506100032 62 93 5.2 7.8 0.00 0.00 0.00 71 989.3
20260506095832 62 90 4.3 7.8 0.00 0.00 0.00 71 989.3
20260506095632 62 72 3.5 5.2 0.00 0.00 0.00 71 989.3
20260506095432 62 77 4.3 6.1 0.00 0.00 0.00 71 989.2
20260506095232 62 77 4.3 6.1 0.00 0.00 0.00 71 989.1
20260506095032 62 94 4.3 5.2 0.00 0.00 0.00 71 989.1
20260506094832 62 102 4.3 6.1 0.00 0.00 0.00 71 989.1
20260506094632 62 92 5.2 6.1 0.00 0.00 0.00 71 989.1
20260506094432 62 91 5.2 7.0 0.00 0.00 0.00 71 989.1
20260506094232 63 95 5.2 7.8 0.00 0.00 0.00 71 989.1
20260506094032 63 99 7.0 8.7 0.00 0.00 0.00 71 989.0
20260506093831 62 100 6.1 7.8 0.00 0.00 0.00 71 989.0
20260506093631 62 100 7.0 9.6 0.00 0.00 0.00 71 989.0
20260506093431 62 85 6.1 8.7 0.00 0.00 0.00 71 988.9
20260506093028 61 82 7.0 8.7 0.00 0.00 0.00 72 989.0
20260506092828 61 91 6.1 7.8 0.00 0.00 0.00 72 989.0
20260506092628 61 85 6.1 7.8 0.00 0.00 0.00 72 989.1
20260506092428 61 81 6.1 8.7 0.00 0.00 0.00 72 989.2
20260506092228 61 85 5.2 7.0 0.00 0.00 0.00 72 989.2
20260506092028 61 88 5.2 7.0 0.00 0.00 0.00 72 989.3
20260506091828 61 92 5.2 7.0 0.00 0.00 0.00 72 989.4
20260506091628 61 85 4.3 6.1 0.00 0.00 0.00 72 989.4
20260506091428 61 92 5.2 7.0 0.00 0.00 0.00 72 989.5
20260506091228 61 97 6.1 9.6 0.00 0.00 0.00 72 989.5
20260506091028 61 94 6.1 8.7 0.00 0.00 0.00 72 989.5
20260506090828 61 92 5.2 7.8 0.00 0.00 0.00 72 989.4
20260506090628 61 106 6.1 8.7 0.00 0.00 0.00 72 989.4
20260506090428 61 96 5.2 8.7 0.00 0.00 0.00 72 989.3
20260506090227 60 82 4.3 6.1 0.00 0.00 0.00 72 989.3
20260506090027 60 86 6.1 7.0 0.00 0.00 0.00 72 989.4
20260506085827 60 106 6.1 8.7 0.00 0.00 0.00 72 989.3
20260506085627 60 100 6.1 8.7 0.00 0.00 0.00 72 989.3
20260506085427 60 104 4.3 7.0 0.00 0.00 0.00 72 989.4
20260506085227 60 111 5.2 7.0 0.00 0.00 0.00 72 989.5
20260506085027 60 98 5.2 7.8 0.00 0.00 0.00 72 989.5
20260506084837 60 100 5.2 7.8 0.00 0.00 0.00 72 989.6
20260506084618 59 118 5.2 7.8 0.00 0.00 0.00 72 989.6
20260506084418 59 115 6.1 7.8 0.00 0.00 0.00 72 989.6
20260506084218 59 123 5.2 7.8 0.00 0.00 0.00 72 989.7
20260506084017 59 120 5.2 7.0 0.00 0.00 0.00 72 989.7
20260506083817 59 102 5.2 8.7 0.00 0.00 0.00 72 989.6
20260506083617 59 97 6.1 8.7 0.00 0.00 0.00 72 989.6
20260506083417 59 99 5.2 8.7 0.00 0.00 0.00 73 989.6
20260506083217 59 102 5.2 10.4 0.00 0.00 0.00 72 989.7
20260506083017 59 98 7.0 10.4 0.00 0.00 0.00 72 989.7
20260506082817 59 93 7.0 10.4 0.00 0.00 0.00 72 989.7
20260506082618 59 104 7.8 10.4 0.00 0.00 0.00 72 989.7
20260506082406 59 91 7.0 10.4 0.00 0.00 0.00 72 989.7
20260506081718 58 104 7.8 10.4 0.00 0.00 0.00 73 989.7
20260506081518 58 108 8.7 10.4 0.00 0.00 0.00 73 989.7
20260506081318 58 110 7.8 10.4 0.00 0.00 0.00 73 989.7
20260506081118 58 103 7.8 11.3 0.00 0.00 0.00 73 989.8
20260506080918 58 104 7.8 9.6 0.00 0.00 0.00 72 989.8
20260506080718 58 103 8.7 12.2 0.00 0.00 0.00 72 989.8
20260506080518 58 95 7.0 12.2 0.00 0.00 0.00 73 989.8
20260506080324 58 90 7.0 10.4 0.00 0.00 0.00 72 989.8
20260506080117 58 97 8.7 10.4 0.00 0.00 0.00 73 989.7
20260506073517 57 90 7.8 12.2 0.00 0.00 0.00 73 989.6
20260506073317 57 84 8.7 12.2 0.00 0.00 0.00 73 989.6
20260506073116 57 78 7.8 11.3 0.00 0.00 0.00 73 989.5
20260506072917 56 73 7.0 12.2 0.00 0.00 0.00 73 989.5
20260506072717 56 86 7.0 9.6 0.00 0.00 0.00 73 989.6
20260506072516 56 90 7.8 10.4 0.00 0.00 0.00 74 989.7
20260506072316 56 91 7.8 11.3 0.00 0.00 0.00 73 989.7
20260506072116 56 95 10.4 12.2 0.00 0.00 0.00 73 989.7
20260506071916 56 95 9.6 12.2 0.00 0.00 0.00 73 989.8
20260506071715 56 90 10.4 12.2 0.00 0.00 0.00 73 989.8
20260506071516 56 86 11.3 12.2 0.00 0.00 0.00 73 989.7
20260506071316 56 84 9.6 13.9 0.00 0.00 0.00 73 989.7
20260506071116 56 87 7.8 11.3 0.00 0.00 0.00 74 989.6
20260506070916 56 94 7.8 10.4 0.00 0.00 0.00 74 989.7
20260506070717 56 96 8.7 11.3 0.00 0.00 0.00 74 989.8
20260506070516 55 85 8.7 11.3 0.00 0.00 0.00 74 989.8
20260506070316 55 90 7.8 10.4 0.00 0.00 0.00 74 989.8
20260506070115 55 97 8.7 11.3 0.00 0.00 0.00 74 989.8
20260506062515 53 83 8.7 13.9 0.00 0.00 0.00 74 990.2
20260506062314 53 76 8.7 10.4 0.00 0.00 0.00 74 990.2
20260506062114 53 76 7.8 10.4 0.00 0.00 0.00 74 990.2
20260506061914 53 82 7.8 12.2 0.00 0.00 0.00 74 990.3
20260506061714 53 82 7.8 13.0 0.00 0.00 0.00 74 990.3
20260506061514 53 80 8.7 13.9 0.00 0.00 0.00 74 990.4
20260506061314 53 84 9.6 13.9 0.00 0.00 0.00 74 990.3
20260506061105 53 90 7.8 12.2 0.00 0.00 0.00 74 990.3
20260506060907 53 82 7.0 10.4 0.00 0.00 0.00 75 990.3
20260506060705 53 80 5.2 10.4 0.00 0.00 0.00 75 990.2
20260506060505 53 81 6.1 9.6 0.00 0.00 0.00 75 990.2
20260506060305 52 80 7.0 11.3 0.00 0.00 0.00 75 990.3
20260506060105 52 84 9.6 13.0 0.00 0.00 0.00 75 990.4
20260506051304 50 69 7.8 10.4 0.00 0.00 0.00 75 990.8
20260506051104 50 73 7.0 10.4 0.00 0.00 0.00 75 990.8
20260506050903 50 69 6.1 10.4 0.00 0.00 0.00 75 990.8
20260506050703 49 66 5.2 9.6 0.00 0.00 0.00 75 990.8
20260506050503 49 62 8.7 13.9 0.00 0.00 0.00 75 990.7
20260506050303 49 61 8.7 13.9 0.00 0.00 0.00 75 990.7
20260506050103 49 68 7.0 15.6 0.00 0.00 0.00 75 990.7
20260506045103 49 73 6.1 8.7 0.00 0.00 0.00 75 990.9
20260506044903 49 74 6.1 8.7 0.00 0.00 0.00 75 990.9
20260506044702 49 64 6.1 8.7 0.00 0.00 0.00 75 990.9
20260506044503 49 68 7.0 11.3 0.00 0.00 0.00 75 990.8
20260506044303 49 72 8.7 11.3 0.00 0.00 0.00 75 990.8
20260506044103 49 72 7.8 11.3 0.00 0.00 0.00 75 990.8
20260506043903 49 69 7.8 10.4 0.00 0.00 0.00 75 990.8
20260506043701 49 65 7.8 10.4 0.00 0.00 0.00 74 990.9
20260506043502 49 64 7.0 9.6 0.00 0.00 0.00 74 991.0
20260506043302 49 66 7.8 13.9 0.00 0.00 0.00 74 991.1
20260506043102 49 66 7.0 12.2 0.00 0.00 0.00 74 991.2
20260506042902 49 65 7.8 10.4 0.00 0.00 0.00 74 991.2
20260506042701 49 64 9.6 12.2 0.00 0.00 0.00 74 991.2
20260506042502 49 64 8.7 11.3 0.00 0.00 0.00 74 991.2
20260506042305 49 61 7.0 9.6 0.00 0.00 0.00 74 991.1
20260506042102 49 56 7.8 12.2 0.00 0.00 0.00 74 991.0
20260506041902 49 61 7.0 12.2 0.00 0.00 0.00 74 991.0
20260506041701 49 61 6.1 8.7 0.00 0.00 0.00 74 991.0
20260506041502 49 60 7.0 10.4 0.00 0.00 0.00 74 991.0
20260506041302 49 62 7.0 10.4 0.00 0.00 0.00 74 991.0
20260506041102 49 62 5.2 8.7 0.00 0.00 0.00 74 991.0
20260506040902 49 61 7.0 8.7 0.00 0.00 0.00 74 991.0
20260506040701 49 65 7.0 9.6 0.00 0.00 0.00 74 991.0
20260506040501 49 62 7.8 11.3 0.00 0.00 0.00 74 990.9
20260506040301 49 62 7.8 11.3 0.00 0.00 0.00 74 990.8
20260506040101 49 60 7.8 10.4 0.00 0.00 0.00 74 990.7
20260506035901 48 64 7.0 9.6 0.00 0.00 0.00 74 990.8
20260506035700 48 66 7.8 10.4 0.00 0.00 0.00 74 990.8
20260506035501 48 63 9.6 13.0 0.00 0.00 0.00 74 990.8
20260506035301 48 64 9.6 13.0 0.00 0.00 0.00 74 990.8
20260506035101 48 57 7.0 11.3 0.00 0.00 0.00 74 990.9
20260506034901 48 55 7.8 11.3 0.00 0.00 0.00 74 991.0